DG7FDL-13 Weather Reports


time (UTC)temp
C
wind
direction
speed
KPH
gust
KPH
rain 1hr
cm
rain 24hr
cm
rain mn
cm
humidity
%
barometer
mb
20260505012026 13 0.0 0.0 0.00 0.00 0.00 88 1011.9
20260505005959 13 0.0 0.0 0.00 0.00 0.00 84 1012.0
20260505004942 13 0.0 0.0 0.00 0.00 0.00 84 1012.1
20260505001831 13 0.0 0.0 0.00 0.00 0.00 82 1012.4
20260504235118 14 0.0 0.0 0.00 0.00 0.00 79 1012.6
20260504234230 14 0.0 0.0 0.00 0.00 0.00 79 1012.5
20260504233119 13 0.0 0.0 0.00 0.00 0.00 80 1012.6
20260504232359 14 0.0 0.0 0.00 0.00 0.00 77 1012.7
20260504231138 14 0.0 0.0 0.00 0.00 0.00 77 1012.8
20260504230142 14 0.0 0.0 0.00 0.00 0.00 77 1012.8
20260504225138 14 0.0 0.0 0.00 0.00 0.00 79 1013.0
20260504224007 14 0.0 0.0 0.00 0.00 0.00 79 1013.0
20260504223403 15 0.0 0.0 0.00 0.00 0.00 76 1013.0
20260504222026 15 0.0 0.0 0.00 0.00 0.00 74 1013.3
20260504221003 15 0.0 0.0 0.00 0.00 0.00 74 1013.3
20260504215539 15 0.0 0.0 0.00 0.00 0.00 72 1013.3
20260504214319 15 0.0 0.0 0.00 0.00 0.00 74 1013.3
20260504213402 15 0.0 0.0 0.00 0.00 0.00 73 1013.3
20260504212331 15 0.0 0.0 0.00 0.00 0.00 73 1013.3
20260504211208 16 0.0 0.0 0.00 0.00 0.00 71 1013.3
20260504210231 15 0.0 0.0 0.00 0.00 0.00 71 1013.5
20260504205110 15 0.0 0.0 0.00 0.00 0.00 71 1013.5
20260504204006 16 0.0 0.0 0.00 0.00 0.00 70 1013.3
20260504203004 16 0.0 0.0 0.00 0.00 0.00 70 1013.5
20260504200806 16 0.0 0.0 0.00 0.00 0.00 69 1013.5
20260504195254 16 0.0 0.0 0.00 0.00 0.00 68 1013.3
20260504194231 17 0.0 0.0 0.00 0.00 0.00 67 1013.2
20260504193030 17 0.0 0.0 0.00 0.00 0.00 65 1013.2
20260504192116 17 0.0 0.0 0.00 0.00 0.00 66 1013.1
20260504190156 17 0.0 0.0 0.00 0.00 0.00 65 1013.1
20260504185030 17 0.0 0.0 0.00 0.00 0.00 65 1013.1
20260504184007 17 0.0 0.0 0.00 0.00 0.00 63 1013.0
20260504183030 17 0.0 0.0 0.00 0.00 0.00 63 1012.9
20260504181032 18 0.0 1.6 0.00 0.00 0.00 63 1012.6
20260504180740 18 0.0 1.6 0.00 0.00 0.00 61 1012.6
20260504174943 18 0 1.6 8.0 0.00 0.00 0.00 60 1012.7
20260504173002 19 0.0 3.2 0.00 0.00 0.00 58 1012.5
20260504171939 20 135 3.2 4.8 0.00 0.00 0.00 54 1012.4
20260504170943 20 0 4.8 9.7 0.00 0.00 0.00 51 1012.2
20260504140943 22 0 1.6 3.2 0.00 0.00 0.00 47 1012.4
20260504090116 18 45 1.6 3.2 0.00 0.00 0.00 56 1014.8
20260504080828 17 45 3.2 3.2 0.00 0.00 0.00 58 1014.9
20260504070230 15 0.0 3.2 0.00 0.00 0.00 60 1014.5
20260504044806 10 0.0 0.0 0.00 0.00 0.00 75 1014.2
20260504044054 10 0.0 1.6 0.00 0.00 0.00 74 1014.2
20260504042806 10 0.0 0.0 0.00 0.00 0.00 74 1014.2
20260504042020 10 0.0 0.0 0.00 0.00 0.00 78 1014.1
20260504040915 10 0.0 1.6 0.00 0.00 0.00 76 1014.2
20260504035344 11 0.0 0.0 0.00 0.00 0.00 73 1013.8
20260504033343 11 0.0 0.0 0.00 0.00 0.00 72 1013.9
20260504031342 11 0.0 0.0 0.00 0.00 0.00 74 1013.9
20260504025207 12 0.0 0.0 0.00 0.00 0.00 72 1013.8
20260504024143 12 0.0 0.0 0.00 0.00 0.00 70 1013.7
20260504023226 12 0.0 0.0 0.00 0.00 0.00 68 1013.7
20260504022006 12 0.0 0.0 0.00 0.00 0.00 68 1013.7
20260504021031 13 0.0 0.0 0.00 0.00 0.00 69 1013.7
20260504014230 15 0.0 0.0 0.00 0.00 0.00 60 1013.8
20260504013206 15 0.0 0.0 0.00 0.00 0.00 59 1013.9
20260504012230 15 0.0 0.0 0.00 0.00 0.00 59 1013.9